Regional Weather Roundup
Issued by NWS

Home | Current Version | Previous Version | Graphics & Text | Print | Product List | Glossary On
Versions: 1 2 3 4 5 6 7 8 9 10 11 12 13 14 15 16 17 18 19 20 21 22 23 24 25 26 27 28 29 30 31 32 33 34 35 36 37 38 39 40 41 42 43 44 45 46 47 48 49 50
000
ASUS45 KABQ 171301
RWRNM
WEATHER ROUNDUP FOR NEW MEXICO
NATIONAL WEATHER SERVICE ALBUQUERQUE NM
700 AM MDT WED SEP 17 2014

NOTE: "FAIR" MEANS FEW OR NO CLOUDS BELOW 12,000 FEET AGL WITH NO
       SIGNIFICANT WEATHER OR OBSTRUCTIONS TO VISION.

      THIS PRODUCT IS RELEASED AS TWO VERSIONS.  ONE VERSION NEAR
      THE TOP OF THE HOUR CONTAINING PRELIMINARY DATA FROM ALBUQUERQUE
      AND OTHER STATIONS.  A FINAL VERSION WITH ADDITIONAL DATA IS
      ISSUED ABOUT 10 MINUTES AFTER THE HOUR.

NMZ501-503-504-510>518-171400-
NORTHWEST PLATEAU/NORTHCENTRAL MOUNTAINS

CITY           SKY/WX    TMP DP  RH WIND       PRES   REMARKS
FARMINGTON     CLEAR     62  49  62 E6        30.15R
LOS ALAMOS     CLOUDY    55  53  94 CALM      30.27S
SANTA FE       CLOUDY    55  50  83 CALM      30.22R
ANGEL FIRE     FAIR      41  38  89 CALM      30.35R

$$
NMZ402-403-502-505>509-171400-
WESTCENTRAL MOUNTAINS/SOUTHWEST MOUNTAINS

CITY           SKY/WX    TMP DP  RH WIND       PRES   REMARKS
GALLUP         CLOUDY    57  50  77 CALM      30.21S
GRANTS         CLOUDY    55  54  94 S3        30.24S
SILVER CITY    LGT RAIN  63  59  88 NE8       30.16R

$$
NMZ407-409-411-412-171400-
SOUTHERN DESERTS

CITY           SKY/WX    TMP DP  RH WIND       PRES   REMARKS
LORDSBURG      CLOUDY    64  63  94 E7        30.06S
DEMING         CLOUDY    64  63  96 NE12      30.08R
LAS CRUCES     CLOUDY    64  62  94 N3        30.11R
ALAMOGORDO     CLOUDY    64  64 100 NE9       30.12R
T OR C         LGT RAIN  62  61  96 CALM      30.13S

$$
NMZ519>523-171400-
CENTRAL VALLEYS/CENTRAL HIGHLANDS

CITY           SKY/WX    TMP DP  RH WIND       PRES   REMARKS
ALBUQUERQUE    LGT RAIN  62  57  83 CALM      30.18R
DOUBLE EAGLE   DRIZZLE   59  57  94 CALM      30.20R
CLINES CORNERS CLOUDY    54  52  93 W6        30.24R
BELEN          DRIZZLE   60  59  97 NW3       30.17R
SOCORRO        LGT RAIN  62  61  97 N3        30.15R

$$
NMZ524>526-539-540-171400-
SOUTHCENTRAL MOUNTAINS

CITY           SKY/WX    TMP DP  RH WIND       PRES   REMARKS
RUIDOSO        NOT AVBL

$$
NMZ527>531-171400-
NORTHEAST HIGHLANDS/NORTHEAST PLAINS

CITY           SKY/WX    TMP DP  RH WIND       PRES   REMARKS
LAS VEGAS      CLOUDY    52  46  80 CALM      30.22R
RATON          MOCLDY    52  50  93 NE6       30.18S
CLAYTON        MOCLDY    60  55  83 SW7       30.09R

$$
NMZ532>537-171400-
EASTCENTRAL PLAINS

CITY           SKY/WX    TMP DP  RH WIND       PRES   REMARKS
TUCUMCARI      CLOUDY    64  60  87 SW8       30.08R
CANNON AFB     MOCLDY    64  61  88 W6        30.13R
CLOVIS AIRPORT   N/A     63  61  94 SW6       30.14S

$$
NMZ028-029-538-171400-
SOUTHEAST PLAINS

CITY           SKY/WX    TMP DP  RH WIND       PRES   REMARKS
ROSWELL        CLOUDY    66  65  96 CALM      30.08S FOG
CARLSBAD       MOCLDY    66  32  28 NW3       30.06S HAZE
HOBBS          MOCLDY    64  64 100 CALM      30.10S FOG


$$



USA.gov is the U.S. government's official web portal to all federal, state and local government web resources and services.